{"data":{"norad_id":63642,"intl_designator":"2025-083J","name":"STARLINK-33836","alt_names":[],"object_type":"PAYLOAD","status":"ACTIVE","operator":null,"country":"US","launch_date":"2025-04-25","launch_site_code":"AFETR","launch_vehicle":null,"mission":null,"orbit_class":"UNKNOWN","rcs_meters":null,"size_class":null,"mass_kg":null,"dimensions":null,"purposes":["comms"],"wikipedia_slug":null,"has_3d_model":false,"image_url":null,"decayed_at":null,"tle_current":{"epoch":"2026-05-25T03:00:18.230400Z","epoch_age_seconds":64263,"freshness":"FRESH","line1":"1 63642U 25083J   26145.12521100  .00013485  00000+0  49857-3 0  9995","line2":"2 63642  43.0018 293.8065 0001438 268.0190  92.0497 15.27586961 61754","mean_motion":15.27586961,"eccentricity":0.0001438,"inclination_deg":43.0018,"raan_deg":293.8065,"arg_perigee_deg":268.019,"mean_anomaly_deg":92.0497,"bstar":0.00049857,"rev_number":6175,"period_min":94.26631915327,"perigee_km":482.04161681731,"apogee_km":484.01488794389,"semimajor_km":6861.1652523806,"source":"CELESTRAK","updated_at":"2026-05-25T13:38:20.053624Z"}}}